FW5711 Weather Reports


time (UTC)temp
C
wind
direction
speed
KPH
gust
KPH
rain 1hr
cm
rain 24hr
cm
rain mn
cm
humidity
%
barometer
mb
20260906234547 18 292 8.0 14.5 0.00 0.03 0.00 71 1015.4
20260906233054 18 308 6.4 17.7 0.00 0.03 0.00 70 1015.5
20260906231551 18 360 9.7 19.3 0.00 0.03 0.00 72 1015.7
20260906230048 18 286 11.3 19.3 0.00 0.03 0.00 73 1015.9
20260906224545 18 325 8.0 17.7 0.00 0.03 0.00 72 1015.9
20260906223044 18 298 8.0 16.1 0.00 0.03 0.00 70 1016.2
20260906221547 18 297 4.8 12.9 0.00 0.03 0.00 70 1016.2
20260906220120 18 308 1.6 8.0 0.00 0.03 0.00 69 1016.1
20260906214545 18 360 3.2 12.9 0.00 0.03 0.00 70 1016.1
20260906213050 18 5 4.8 12.9 0.00 0.03 0.00 70 1016.3
20260906211544 18 37 4.8 14.5 0.00 0.03 0.00 70 1016.2
20260906210104 18 38 11.3 16.1 0.00 0.03 0.00 69 1016.2
20260906204545 17 349 4.8 12.9 0.00 0.03 0.00 70 1016.1
20260906203049 17 360 8.0 16.1 0.00 0.03 0.00 70 1016.3
20260906201546 17 360 6.4 14.5 0.00 0.03 0.00 71 1016.3
20260906200049 17 0 3.2 8.0 0.00 0.03 0.00 72 1016.5
20260906194607 17 104 4.8 12.9 0.00 0.03 0.00 73 1016.6
20260906193044 17 19 3.2 17.7 0.00 0.03 0.00 73 1016.8
20260906191543 17 38 12.9 20.9 0.00 0.03 0.00 73 1016.9
20260906190045 17 43 12.9 22.5 0.00 0.03 0.00 75 1016.9
20260906184604 16 43 14.5 22.5 0.00 0.03 0.00 75 1016.8
20260906183057 16 27 14.5 19.3 0.00 0.03 0.00 77 1017.0
20260906181546 15 38 14.5 22.5 0.00 0.03 0.00 81 1017.3
20260906180049 15 46 11.3 22.5 0.00 0.03 0.00 87 1017.4
20260906174545 14 49 24.1 32.2 0.00 0.05 0.00 93 1016.7
20260906173045 13 24 17.7 22.5 0.00 0.05 0.00 90 1017.6
20260906171546 13 318 6.4 12.9 0.00 0.05 0.00 87 1018.7
20260906170050 13 295 6.4 16.1 0.00 0.05 0.00 87 1018.5
20260906164553 13 279 4.8 14.5 0.00 0.05 0.00 88 1018.7
20260906163050 13 284 6.4 12.9 0.00 0.05 0.00 88 1018.8
20260906161543 12 311 8.0 16.1 0.00 0.05 0.00 89 1018.6
20260906160050 12 311 9.7 20.9 0.00 0.05 0.00 89 1018.6
20260906154545 12 295 12.9 24.1 0.00 0.05 0.00 89 1018.8
20260906153046 12 317 9.7 22.5 0.00 0.05 0.00 88 1019.0
20260906151549 12 316 8.0 22.5 0.00 0.05 0.00 88 1019.2
20260906150056 13 292 14.5 22.5 0.00 0.05 0.00 87 1019.4
20260906144557 13 240 14.5 25.7 0.00 0.05 0.00 86 1019.4
20260906143044 15 267 11.3 22.5 0.00 0.05 0.00 85 1019.7
20260906141549 15 311 1.6 4.8 0.00 0.05 0.00 87 1019.2
20260906140044 14 26 1.6 4.8 0.00 0.05 0.00 87 1018.9
20260906134543 14 0 0.0 6.4 0.00 0.10 0.00 87 1019.1
20260906133046 14 15 3.2 8.0 0.00 0.10 0.00 88 1019.0
20260906131542 13 304 3.2 8.0 0.00 0.10 0.00 88 1018.7
20260906130049 13 5 8.0 14.5 0.00 0.10 0.00 88 1018.9
20260906124550 13 11 11.3 19.3 0.00 0.10 0.00 88 1018.9
20260906123045 13 352 9.7 17.7 0.00 0.10 0.00 88 1019.3
20260906121545 13 351 11.3 20.9 0.00 0.10 0.00 88 1018.8
20260906120050 13 360 11.3 20.9 0.00 0.10 0.00 88 1018.6
20260906114550 13 5 14.5 22.5 0.00 0.10 0.00 87 1018.8
20260906113045 13 5 11.3 22.5 0.00 0.10 0.00 87 1019.1
20260906111549 13 352 11.3 22.5 0.00 0.10 0.00 87 1019.0
20260906110045 13 5 11.3 20.9 0.00 0.10 0.00 87 1018.8
20260906104605 13 349 14.5 24.1 0.00 0.10 0.00 86 1019.1
20260906103044 13 5 16.1 27.4 0.00 0.10 0.00 86 1019.1
20260906101545 13 340 19.3 29.0 0.00 0.10 0.00 85 1019.0
20260906100046 14 360 19.3 29.0 0.00 0.10 0.00 85 1019.1
20260906094612 14 344 14.5 24.1 0.00 0.10 0.00 85 1019.0
20260906093047 14 5 14.5 22.5 0.00 0.10 0.00 85 1019.0
20260906091547 14 352 11.3 24.1 0.00 0.10 0.00 85 1019.1
20260906090048 14 13 11.3 20.9 0.00 0.10 0.00 85 1019.3
20260906084545 14 327 9.7 20.9 0.00 0.10 0.00 85 1019.5
20260906083045 14 323 6.4 14.5 0.00 0.10 0.00 86 1019.8
20260906081552 14 311 6.4 16.1 0.00 0.10 0.00 86 1020.0
20260906080050 13 351 6.4 11.3 0.00 0.10 0.00 87 1020.0
20260906074546 13 346 6.4 12.9 0.00 0.10 0.00 88 1020.0
20260906073044 13 344 4.8 8.0 0.00 0.10 0.00 87 1020.0
20260906071544 13 323 4.8 12.9 0.00 0.10 0.00 86 1020.1
20260906070044 13 5 3.2 14.5 0.00 0.10 0.00 85 1020.2
20260906064545 13 360 11.3 19.3 0.00 0.10 0.00 86 1020.3
20260906063045 13 9 9.7 16.1 0.00 0.10 0.00 86 1020.5
20260906061547 13 275 6.4 14.5 0.00 0.10 0.00 86 1020.7
20260906060043 13 297 4.8 12.9 0.00 0.10 0.00 86 1020.6
20260906054545 13 297 4.8 14.5 0.00 0.10 0.10 86 1020.5
20260906053044 13 339 9.7 22.5 0.03 0.10 0.10 86 1020.5
20260906051545 13 5 11.3 19.3 0.03 0.10 0.10 86 1020.0
20260906050053 13 352 9.7 20.9 0.03 0.10 0.10 85 1019.9
20260906044546 13 352 16.1 25.7 0.03 0.10 0.10 83 1019.8
20260906043047 14 352 12.9 20.9 0.00 0.08 0.08 80 1020.2
20260906041547 14 351 16.1 27.4 0.00 0.08 0.08 80 1019.3
20260906040045 14 310 16.1 27.4 0.00 0.08 0.08 80 1019.1
20260906034558 14 309 12.9 20.9 0.00 0.08 0.08 78 1019.1
20260906033045 15 340 14.5 24.1 0.00 0.08 0.08 75 1019.4
20260906031618 15 338 16.1 30.6 0.00 0.08 0.08 71 1019.5
20260906030046 16 323 12.9 25.7 0.00 0.08 0.08 65 1020.5
20260906024546 16 15 29.0 38.6 0.00 0.08 0.08 65 1018.1
20260906023049 16 11 27.4 35.4 0.00 0.08 0.08 64 1017.8
20260906021549 17 20 25.7 38.6 0.00 0.08 0.08 63 1017.8
20260906020056 17 5 19.3 33.8 0.00 0.08 0.08 59 1017.8
20260906014555 18 5 19.3 25.7 0.00 0.08 0.08 57 1017.8
20260906013044 18 10 16.1 22.5 0.00 0.08 0.08 56 1017.8
20260906011543 19 360 17.7 27.4 0.00 0.08 0.08 53 1017.9
20260906010044 20 5 20.9 29.0 0.00 0.08 0.08 51 1017.8
20260906004541 20 18 22.5 30.6 0.00 0.08 0.08 49 1018.0
20260906003046 22 5 17.7 24.1 0.00 0.08 0.08 43 1018.0
20260906001544 22 360 17.7 25.7 0.00 0.08 0.08 42 1018.0
20260906000044 22 360 16.1 25.7 0.00 0.08 0.08 42 1017.9